Theta_e
340 346 346 349 357 355 356 341 338 348 347 344 343 345 345 345 344 349 348 346 339 340 340 340 338 337 338 337 338 339 337 336 333 337 337 333 336 337 338 334 335 339 340 334 334 335 339 342 344
345 345 347 351 358 358 352 342 343 350 347 342 342 342 344 346 346 347 347 342 340 341 342 341 340 339 336 338 337 340 339 336 338 337 335 336 338 332 331 335 334 331 330 334 334 330 339 340 342
346 347 349 351 354 357 350 343 343 349 344 342 342 343 346 346 347 346 346 343 342 335 333 333 333 336 335 336 337 340 339 338 338 335 323 328 327 335 334 333 336 338 337 334 332 332 327 340 341
346 352 350 353 356 355 351 342 347 343 341 341 342 344 346 346 347 347 345 345 344 334 336 339 340 335 334 336 335 339 340 338 336 337 333 333 332 336 338 336 332 334 331 328 328 328 331 340 340
348 352 354 356 352 350 352 345 348 348 343 342 342 344 348 346 346 346 346 346 345 333 333 330 329 328 329 332 333 338 341 338 338 337 338 339 338 338 334 332 330 329 325 324 325 326 337 341 341
350 351 356 357 351 348 348 350 349 348 343 343 343 345 348 346 346 346 346 345 342 334 331 332 332 335 329 327 333 336 339 339 338 336 338 338 336 336 334 332 329 328 325 324 326 326 338 340 340
351 352 355 354 350 350 354 349 349 344 342 343 342 342 346 347 346 347 346 345 345 341 336 334 334 338 331 328 334 334 339 338 336 333 337 338 338 336 336 331 328 326 325 324 324 330 343 342 342
352 351 355 353 351 354 353 350 347 343 344 342 341 342 347 348 347 346 345 346 343 342 337 336 331 334 335 336 334 333 338 338 332 333 334 335 338 338 338 336 328 328 328 328 331 334 339 341 341
352 352 357 355 354 352 351 352 348 346 343 342 342 342 348 348 346 346 345 344 345 346 345 345 340 342 338 335 334 333 338 337 330 330 334 337 338 339 340 335 340 341 343 343 343 339 337 336 337
350 352 356 351 352 354 352 352 350 347 347 342 342 345 347 346 344 344 346 344 342 347 346 344 344 343 338 336 335 336 339 343 342 348 345 343 338 340 341 342 343 345 347 347 346 346 346 343 338
351 354 352 353 351 350 351 351 352 349 348 343 342 344 346 345 346 347 346 345 344 345 346 345 345 343 342 341 341 343 339 341 343 343 343 346 338 340 341 344 346 340 343 342 345 345 341 343 340
352 351 353 352 350 349 351 349 351 349 347 343 341 342 346 345 341 343 347 346 347 346 345 346 342 343 345 343 341 339 342 345 343 342 342 341 339 342 346 341 343 343 345 341 345 344 340 346 343
352 353 352 349 348 348 348 350 350 350 345 343 342 343 345 345 343 345 346 345 342 342 345 342 341 346 346 346 345 344 341 345 343 344 344 344 347 344 343 344 341 336 346 343 345 344 345 344 345
349 350 349 349 347 348 350 350 348 350 346 344 343 342 342 344 343 344 345 345 344 344 344 343 344 344 345 344 346 346 344 346 343 345 344 343 346 340 343 341 340 344 345 342 344 345 343 342 345
349 351 348 348 348 349 347 350 349 348 345 344 342 342 340 339 343 346 346 345 345 344 342 342 342 345 342 342 342 342 345 342 339 343 347 345 345 346 343 341 343 343 341 340 341 343 345 342 345
351 351 353 348 348 346 347 352 346 346 345 343 341 341 340 340 343 343 345 345 345 344 342 343 342 344 342 342 342 343 344 341 342 344 348 346 344 345 343 343 346 347 348 345 344 343 343 343 345
351 353 354 350 347 347 349 349 347 346 344 342 340 340 339 342 343 344 345 345 344 344 345 345 342 339 343 341 343 343 346 345 342 341 345 347 344 342 341 345 345 348 346 346 346 345 345 343 345
352 352 353 354 348 347 348 348 346 346 344 341 340 340 340 342 342 344 345 345 344 344 347 347 343 341 340 345 345 346 345 343 343 343 340 342 339 346 340 342 346 345 342 346 345 347 347 346 345
343 350 354 352 348 348 348 347 345 344 346 341 340 340 340 341 342 344 344 345 345 343 346 345 345 343 342 346 345 344 345 346 346 345 342 340 341 343 342 342 344 347 346 343 342 346 347 343 349
347 351 353 351 348 347 348 348 347 345 344 345 340 339 340 341 341 344 346 346 344 344 344 347 345 344 341 346 343 345 345 346 346 346 344 343 341 342 345 340 331 345 341 344 345 350 350 346 345
347 352 350 352 348 345 346 348 347 344 343 344 343 342 341 341 341 344 347 345 346 344 344 343 344 344 342 341 340 343 344 346 346 347 345 345 339 346 348 347 347 345 343 342 348 348 350 346 350
347 349 348 350 347 351 346 354 349 346 344 342 341 344 343 341 341 344 345 347 346 344 344 343 347 342 343 339 343 343 342 343 345 347 344 344 342 347 347 345 347 344 345 345 344 348 349 350 350
349 340 350 349 348 348 348 352 350 346 347 345 340 344 344 342 343 343 346 348 347 345 346 342 344 343 344 345 343 344 345 345 343 347 346 345 344 343 345 344 345 346 337 341 347 348 344 350 350
344 347 347 347 346 350 348 350 353 347 347 345 340 342 345 343 344 344 343 347 346 345 346 346 343 344 343 348 347 346 347 348 347 346 349 347 345 344 346 347 342 339 344 340 347 348 342 347 347
345 343 347 349 351 348 344 346 347 346 344 344 339 340 345 344 344 344 344 344 346 349 347 347 344 341 343 344 346 343 348 349 349 346 348 347 345 345 344 348 347 340 344 348 343 342 339 342 343
331 339 343 352 353 354 346 352 348 346 348 345 339 340 343 345 344 345 346 345 347 347 347 346 346 339 342 345 346 346 346 347 342 345 348 348 349 345 346 343 345 340 339 344 343 342 340 341 339
327 336 335 341 348 348 352 350 351 350 349 346 343 341 345 346 344 344 344 343 348 347 348 348 347 338 339 344 344 346 348 345 345 346 349 349 349 348 347 348 347 345 342 340 348 343 343 344 343
328 330 332 329 348 354 351 352 353 353 347 344 342 342 344 344 344 344 345 342 347 349 349 348 347 340 333 341 347 346 347 350 350 348 349 348 349 349 348 348 347 342 347 349 346 347 347 350 347
326 327 328 326 332 340 347 349 350 348 347 344 343 343 342 344 345 344 344 346 347 349 350 349 348 345 339 334 344 346 344 346 349 349 347 350 348 348 352 351 348 344 349 350 349 344 348 350 349
325 325 326 327 329 332 340 345 348 346 337 337 340 343 344 345 345 345 346 346 345 347 351 349 348 347 342 342 346 344 341 343 343 345 348 344 349 349 350 350 350 346 348 346 347 344 345 350 349
Wind_Speed
8 3 5 6 4 2 4 12 12 18 21 28 25 17 13 7 7 10 30 18 22 23 22 21 20 20 20 20 19 20 20 21 21 21 22 22 23 23 24 22 22 21 21 20 22 23 23 26 24
5 5 3 4 2 2 1 12 16 21 24 34 38 37 31 22 37 37 29 20 22 24 23 22 20 19 19 19 19 19 20 20 20 21 21 22 22 22 22 21 20 20 20 19 21 23 23 23 23
5 6 5 0 3 3 3 17 15 25 27 31 19 25 12 28 35 28 31 23 21 22 21 20 19 18 18 18 19 19 20 20 21 21 22 22 21 22 21 20 18 18 18 18 21 22 23 22 24
6 6 4 1 5 4 4 11 27 26 30 40 32 16 31 33 36 37 33 27 22 19 20 20 19 17 17 17 18 18 19 20 20 21 21 21 20 18 17 17 17 18 18 18 20 22 24 23 22
1 2 3 2 4 9 8 24 8 19 22 28 36 25 27 39 40 35 31 26 20 20 18 17 15 15 16 16 17 19 19 19 19 20 20 19 19 19 19 18 17 18 18 19 20 21 24 26 25
2 2 2 6 6 10 6 24 24 26 30 26 33 31 22 40 36 27 22 18 14 21 18 17 16 16 16 17 18 19 19 18 20 19 19 19 20 19 19 19 19 20 20 21 21 21 26 27 24
2 1 3 6 8 7 10 23 4 28 27 24 34 21 29 34 31 33 27 22 16 14 15 16 16 15 16 18 18 18 19 19 19 19 19 19 19 21 20 21 22 23 23 24 25 24 26 26 24
3 1 4 7 11 2 6 9 16 24 24 36 39 14 17 37 36 31 25 21 14 14 16 15 15 15 15 18 17 18 19 18 18 19 19 19 20 19 19 22 23 26 28 29 30 29 27 23 21
4 2 2 5 11 5 9 8 9 16 35 28 15 28 42 37 32 28 20 18 19 14 16 19 18 14 13 16 18 19 19 19 21 23 20 17 18 20 22 24 26 23 22 21 20 23 25 23 20
7 2 2 15 12 7 6 10 9 18 9 27 33 38 39 31 26 27 25 28 15 20 16 16 17 15 15 18 20 19 21 21 19 17 15 16 18 20 23 21 17 14 11 12 12 12 9 10 14
6 2 4 6 6 22 13 7 6 20 10 27 34 37 38 31 28 27 23 19 25 19 18 18 17 14 17 21 20 18 16 18 17 16 13 12 17 18 16 12 12 14 12 14 15 14 13 16 12
5 5 5 6 7 6 4 4 6 10 17 35 32 32 37 32 25 27 30 29 28 20 24 21 16 16 15 16 16 19 14 18 19 20 17 16 16 11 9 12 9 8 9 10 15 13 15 16 18
10 5 10 12 12 10 7 6 9 12 28 27 30 28 34 34 21 27 33 26 13 17 16 16 18 16 14 12 18 15 16 15 18 18 18 11 9 11 10 10 3 6 12 10 10 10 10 8 12
17 17 8 9 9 3 10 11 8 9 27 29 26 24 20 30 28 33 29 22 21 22 18 19 17 17 14 11 12 18 18 14 16 17 13 12 8 10 14 13 10 10 10 9 8 12 9 12 12
31 18 10 5 3 5 11 4 3 22 30 27 25 22 19 20 32 30 25 25 21 19 17 14 18 19 19 18 18 14 20 16 12 18 12 10 13 8 4 18 19 14 12 11 12 11 8 8 10
9 8 6 2 4 4 5 3 5 1 29 28 26 24 25 24 30 27 27 23 19 16 14 14 13 19 19 16 17 21 19 12 15 12 13 14 15 11 9 10 7 5 4 6 3 6 6 4 7
4 5 9 2 1 2 2 2 7 3 22 26 26 23 26 28 27 26 24 25 17 16 15 18 16 24 20 20 14 19 15 12 13 15 14 13 15 9 13 8 6 5 7 7 6 6 6 7 6
8 7 6 9 6 2 2 2 8 6 17 24 27 23 26 27 25 25 26 22 21 19 15 16 16 16 22 13 13 17 20 10 11 10 11 14 16 15 12 7 4 5 9 11 8 6 3 7 7
7 7 13 9 7 5 2 2 10 13 10 24 24 27 29 28 26 27 25 23 21 23 20 19 18 17 20 17 19 21 16 18 15 11 8 9 11 18 12 10 10 12 9 11 8 6 6 13 7
14 10 11 8 15 3 5 6 10 15 10 12 19 26 29 29 31 29 30 24 22 22 22 21 16 19 19 20 22 20 14 14 17 11 9 8 9 14 13 8 14 6 7 8 8 5 7 6 6
15 16 11 10 11 6 10 3 7 11 15 21 18 13 31 37 35 33 32 25 22 25 25 21 19 18 18 18 23 24 18 15 16 13 9 10 11 13 10 8 9 7 6 8 8 4 4 5 7
3 13 14 21 9 4 8 2 6 10 15 12 18 14 11 38 36 35 32 30 26 22 21 19 20 17 17 17 22 23 23 19 17 12 7 9 10 13 11 10 10 12 8 9 6 1 3 7 13
8 24 17 20 6 9 4 1 4 11 18 20 20 15 16 35 34 37 33 32 28 23 22 18 18 17 20 18 20 16 17 13 21 16 14 11 12 11 10 9 11 12 14 13 7 2 2 5 8
19 17 9 4 4 3 10 4 7 12 27 21 23 20 18 33 31 37 31 28 27 24 21 21 19 21 21 19 18 19 16 15 16 16 17 16 13 14 13 9 8 13 12 13 8 5 3 3 5
19 12 2 1 3 4 4 8 15 13 18 26 26 24 24 28 27 33 34 33 32 30 27 26 21 21 23 21 19 21 19 14 19 20 14 12 14 16 15 12 11 13 16 10 11 9 7 8 2
11 10 5 5 2 5 7 6 7 16 22 32 36 27 32 33 36 36 36 33 36 33 35 27 22 20 22 23 24 20 17 14 16 14 15 10 12 10 11 12 12 11 16 12 10 9 9 8 8
9 6 15 8 4 4 6 4 14 8 12 23 29 29 31 29 37 33 39 39 32 37 40 28 22 19 22 22 21 18 16 14 14 12 14 15 11 12 11 11 10 12 14 13 10 7 8 8 7
7 5 2 3 8 4 7 6 3 10 5 4 17 28 29 30 33 31 44 38 32 42 39 31 23 18 17 20 21 20 17 15 13 14 14 13 11 10 11 11 10 12 12 9 11 9 9 6 4
5 5 3 1 3 3 3 4 7 16 4 3 11 15 27 29 32 32 45 43 39 35 38 33 25 20 19 19 18 17 16 19 15 15 16 14 15 15 12 12 9 14 13 13 13 11 11 6 10
8 8 7 5 8 2 5 5 8 16 13 10 25 30 32 35 36 40 41 46 38 27 34 33 28 20 17 19 15 12 14 14 12 13 12 15 15 16 15 14 14 12 11 10 8 7 9 9 3
Wind_Direction
126 65 31 25 4 316 274 96 85 81 61 77 74 92 92 112 114 124 147 145 135 129 124 120 117 112 106 102 100 102 99 100 104 102 104 106 103 102 103 99 100 97 95 96 98 101 105 103 95
133 58 340 87 280 276 297 84 80 94 96 86 82 83 81 76 112 127 130 137 134 127 125 121 119 113 110 107 101 104 106 103 106 103 105 108 104 105 102 100 98 95 100 99 99 103 111 106 98
116 78 67 2 239 293 39 95 80 81 87 94 82 88 81 113 120 128 140 129 131 127 127 123 122 116 112 108 104 104 108 108 109 106 107 110 108 105 103 101 101 100 101 102 102 106 114 111 103
70 133 104 23 308 273 322 113 102 99 98 99 101 86 116 120 128 132 136 139 135 127 127 125 123 121 120 117 112 109 112 111 111 112 110 108 110 107 104 103 101 99 101 100 104 109 116 114 102
236 181 111 68 344 289 316 103 95 95 110 96 105 107 104 119 130 133 140 147 145 137 134 131 128 127 126 122 118 116 116 116 117 115 112 110 108 108 104 103 102 101 98 97 100 108 118 116 106
1 268 87 111 217 274 305 71 93 100 106 107 108 111 121 138 140 133 136 128 134 142 132 127 123 124 126 128 123 123 120 120 121 121 116 111 109 106 105 102 99 96 93 93 97 106 116 113 110
189 69 76 121 177 303 29 85 121 116 123 116 121 117 132 129 132 135 134 128 122 115 126 124 129 127 123 127 127 128 124 121 124 123 119 115 113 109 101 93 93 93 92 92 94 102 111 107 107
199 103 95 108 179 234 15 91 99 130 124 127 129 147 130 137 146 146 144 145 125 115 113 123 127 123 124 127 130 130 127 119 120 123 120 120 116 106 100 96 96 97 94 94 95 101 103 101 104
243 45 117 168 169 210 291 119 158 114 129 144 142 140 136 143 138 139 132 134 133 135 117 117 113 90 125 125 124 127 125 121 121 118 113 107 113 108 101 97 96 94 91 94 94 96 101 99 97
208 69 95 206 174 162 182 118 142 115 155 121 136 131 140 139 144 146 138 139 137 150 145 136 115 104 113 122 125 124 123 120 122 118 121 110 116 108 103 97 95 82 75 82 76 77 86 104 111
168 116 14 110 150 160 160 152 164 133 136 151 140 143 141 145 151 152 149 145 135 153 147 138 134 119 122 124 126 121 130 131 123 123 119 117 116 114 112 88 95 74 102 85 79 87 77 79 94
100 349 90 115 108 85 45 94 47 97 174 141 144 154 160 155 149 148 150 144 142 139 130 142 138 138 135 132 129 124 117 129 129 129 128 132 126 135 109 97 85 112 94 99 83 102 91 76 75
67 74 101 115 86 103 157 113 124 241 130 139 151 162 161 155 150 149 151 150 159 162 154 155 138 142 145 132 139 139 147 121 143 139 119 125 144 116 124 115 99 74 109 98 116 116 103 104 102
119 97 116 123 57 74 113 135 109 153 143 145 154 155 165 159 149 150 145 138 134 153 154 156 156 142 139 143 171 162 147 147 149 129 127 119 122 101 155 127 130 147 100 112 114 127 122 85 135
138 128 121 54 8 39 346 149 146 156 149 147 149 166 146 152 145 142 144 142 142 146 142 147 167 159 145 137 143 148 158 163 152 137 125 137 148 152 163 116 122 120 96 108 121 119 135 87 102
136 138 153 270 6 334 27 158 187 271 151 147 159 175 161 158 145 147 153 152 147 143 147 152 147 162 155 142 144 144 160 160 147 139 148 157 151 146 122 114 94 100 217 147 122 99 144 115 83
17 222 118 120 307 341 72 214 293 135 161 152 171 180 163 148 142 150 160 156 156 135 149 150 133 146 151 149 160 155 166 154 166 185 180 165 147 144 149 154 134 178 114 106 100 113 118 168 149
185 215 169 128 188 169 15 31 305 316 160 162 178 173 158 150 153 155 161 161 148 151 166 176 150 161 162 148 153 152 166 158 148 135 154 167 147 144 123 156 174 115 120 133 116 114 83 200 177
102 93 102 123 121 102 67 294 275 319 344 166 188 167 163 160 161 163 169 164 164 164 168 164 168 165 174 171 159 161 155 172 174 161 148 162 146 146 137 148 139 123 120 117 128 105 61 131 6
78 111 117 128 153 108 133 272 313 308 296 297 194 176 171 166 164 164 167 173 172 173 180 172 189 188 181 191 174 168 159 166 191 184 177 173 171 145 123 139 132 153 135 138 143 82 30 87 7
134 165 202 148 138 95 130 300 265 294 271 274 272 200 181 171 168 168 169 180 171 177 185 193 188 194 187 180 175 176 170 162 173 180 180 182 175 153 150 161 169 150 139 151 149 57 36 86 27
123 11 181 145 138 149 238 158 209 247 259 250 255 232 187 171 172 173 176 179 173 173 182 193 194 190 171 180 181 180 182 193 189 186 182 180 169 167 161 185 185 174 151 161 135 360 68 48 47
135 107 218 162 121 110 237 114 231 219 248 235 228 202 178 171 171 171 170 178 175 180 184 181 188 193 181 185 179 197 183 199 196 187 185 190 191 192 201 195 205 186 172 174 147 239 162 69 51
145 132 115 64 87 134 177 183 235 206 221 222 219 192 193 178 171 178 181 171 181 186 184 176 182 191 187 190 184 172 189 182 196 190 194 203 202 194 197 202 215 207 182 190 190 220 224 188 67
120 136 120 38 56 247 186 160 240 232 216 211 210 189 191 196 188 187 181 189 183 187 189 190 182 189 190 186 190 186 197 199 199 196 197 213 198 201 203 209 221 209 208 212 216 214 234 226 250
174 168 224 131 88 327 143 211 262 296 215 203 207 195 199 203 195 190 188 185 191 191 199 193 187 189 186 184 186 191 198 201 207 185 188 211 219 191 201 213 223 216 209 208 216 196 217 229 229
263 186 228 102 50 66 298 320 311 7 148 178 191 195 202 202 194 195 197 189 192 194 197 194 191 188 189 190 186 191 188 184 182 188 200 205 222 214 207 230 243 235 216 211 219 225 207 227 220
195 255 238 284 151 172 195 181 220 18 17 130 185 189 205 206 204 206 209 197 199 191 194 196 193 188 193 193 189 190 194 195 188 185 207 200 198 195 208 235 239 210 199 202 231 221 197 208 257
286 294 309 195 212 196 117 273 184 143 159 3 302 260 223 218 218 208 202 196 193 189 192 192 189 189 189 193 194 204 205 204 206 205 208 212 209 212 218 238 244 201 203 219 242 236 232 241 248
206 228 222 137 284 234 166 219 163 153 153 152 228 247 244 235 221 210 193 192 201 190 186 193 190 183 187 191 190 207 209 211 215 224 211 221 221 227 230 235 229 212 221 233 233 224 234 243 246